Location: Москва
(55.7504°N, 37.6175°E)
Time: 19:02:25
(UTC+03:00)

Nauka - Pass Details

Date: 30 September 2021
Orbit: 417 x 423 km, 51.6° (Epoch: 24 October)

Event Time Altitude Azimuth Distance (km) Brightness Sun altitude
Rises 18:53:12 0° 268° (W) 2,366 ? -7.3°
Reaches altitude 10° 18:55:23 10° 260° (W) 1,501 ? -7.6°
Maximum altitude 18:58:29 35° 193° (SSW) 705 ? -8.0°
Drops below altitude 10° 19:01:35 10° 126° (SE) 1,501 ? -8.5°
Enters shadow 19:01:46 - 125° (SE) 1,568 ? -8.5°
